N8DNY-13 Weather Reports


time (UTC)temp
C
wind
direction
speed
KPH
gust
KPH
rain 1hr
cm
rain 24hr
cm
rain mn
cm
humidity
%
barometer
mb
20260503020928 6 289 0.0 0.0 0.00 0.00 0.00 62 1021.0
20260503015418 6 289 0.0 0.0 0.00 0.00 0.00 60 1020.9
20260503013907 6 289 0.0 0.0 0.00 0.00 0.00 58 1020.9
20260503012406 6 289 0.0 0.0 0.00 0.00 0.00 59 1020.7
20260503010921 7 289 0.0 0.0 0.00 0.00 0.00 54 1020.7
20260503005357 7 289 0.0 0.0 0.00 0.00 0.00 51 1020.8
20260503003854 7 289 0.0 0.0 0.00 0.00 0.00 49 1020.6
20260503002347 8 289 0.0 0.0 0.00 0.00 0.00 49 1020.7
20260503000837 8 289 0.0 0.0 0.00 0.00 0.00 46 1020.6
20260502235328 8 277 0.0 0.0 0.00 0.00 0.00 47 1020.5
20260502233827 8 284 0.0 0.0 0.00 0.00 0.00 47 1020.5
20260502232321 8 280 0.0 0.0 0.00 0.00 0.00 47 1020.7
20260502230818 9 283 0.0 0.0 0.00 0.00 0.00 44 1020.6
20260502225314 10 282 0.0 0.0 0.00 0.00 0.00 41 1020.5
20260502223807 10 284 0.0 0.0 0.00 0.00 0.00 45 1020.8
20260502222258 10 307 0.0 0.0 0.00 0.00 0.00 42 1020.8
20260502220749 10 284 0.0 1.6 0.00 0.00 0.00 44 1020.8
20260502215247 10 287 0.0 1.6 0.00 0.00 0.00 45 1020.7
20260502213741 10 277 0.0 0.0 0.00 0.00 0.00 46 1020.6
20260502212237 10 283 0.0 1.6 0.00 0.00 0.00 43 1020.8
20260502210734 10 258 0.0 1.6 0.00 0.00 0.00 45 1020.9
20260502205227 10 287 0.0 0.0 0.00 0.00 0.00 45 1021.0
20260502203718 10 291 0.0 1.6 0.00 0.00 0.00 43 1021.0
20260502202208 11 278 0.0 0.0 0.00 0.00 0.00 42 1021.0
20260502200708 11 294 0.0 0.0 0.00 0.00 0.00 43 1021.2
20260502195201 10 279 0.0 0.0 0.00 0.00 0.00 47 1021.2
20260502193717 10 284 0.0 0.0 0.00 0.00 0.00 44 1021.3
20260502192155 10 270 0.0 1.6 0.00 0.00 0.00 43 1021.3
20260502190651 10 285 0.0 1.6 0.00 0.00 0.00 44 1021.7
20260502185148 10 281 0.0 0.0 0.00 0.00 0.00 45 1021.8
20260502183707 10 286 0.0 1.6 0.00 0.00 0.00 44 1021.9
20260502182140 10 284 0.0 1.6 0.00 0.00 0.00 46 1021.9
20260502180637 10 287 0.0 3.2 0.00 0.00 0.00 45 1021.9
20260502163616 9 281 0.0 1.6 0.00 0.00 0.00 51 1022.5
20260502162112 8 276 0.0 1.6 0.00 0.00 0.00 49 1022.6
20260502160627 8 299 0.0 1.6 0.00 0.00 0.00 51 1022.5
20260502152058 7 300 0.0 1.6 0.00 0.00 0.00 58 1022.6
20260502150557 7 306 0.0 1.6 0.00 0.00 0.00 57 1022.7
20260502130527 7 286 0.0 0.0 0.00 0.00 0.00 64 1022.1
20260502123542 6 287 1.6 3.2 0.00 0.00 0.00 73 1022.1
20260502122018 4 281 0.0 0.0 0.00 0.00 0.00 85 1022.2
20260502120517 3 293 0.0 0.0 0.00 0.00 0.00 88 1021.9
20260502115011 2 293 0.0 0.0 0.00 0.00 0.00 90 1022.0
20260502113507 2 292 0.0 0.0 0.00 0.00 0.00 91 1022.0
20260502112002 2 292 0.0 0.0 0.00 0.00 0.00 91 1021.9
20260502110522 2 292 0.0 0.0 0.00 0.00 0.00 90 1021.5
20260502104958 2 292 0.0 0.0 0.00 0.00 0.00 88 1021.4
20260502103457 2 292 0.0 0.0 0.00 0.00 0.00 87 1021.2
20260502101952 2 292 0.0 0.0 0.00 0.00 0.00 86 1021.4
20260502100447 3 292 0.0 0.0 0.00 0.00 0.00 85 1021.4
20260502090441 3 293 0.0 1.6 0.00 0.00 0.00 82 1021.1
20260502070356 4 289 0.0 0.0 0.00 0.00 0.00 81 1020.4
20260502064854 4 285 0.0 0.0 0.00 0.00 0.00 81 1020.5
20260502063350 4 285 0.0 0.0 0.00 0.00 0.00 83 1020.8
20260502061847 4 283 0.0 0.0 0.00 0.00 0.00 83 1020.8
20260502060344 4 281 0.0 0.0 0.00 0.00 0.00 84 1020.7
20260502054837 4 287 0.0 0.0 0.00 0.00 0.00 90 1020.8
20260502053328 3 288 0.0 0.0 0.00 0.00 0.00 95 1020.7
20260502051820 3 286 0.0 0.0 0.00 0.00 0.00 96 1020.9
20260502050317 3 286 0.0 0.0 0.00 0.00 0.00 96 1021.2
20260502044808 3 286 0.0 0.0 0.00 0.00 0.00 95 1020.9
20260502043307 3 286 0.0 0.0 0.00 0.00 0.00 95 1021.0
20260502041808 4 286 0.0 0.0 0.00 0.00 0.00 93 1020.8
20260502040301 4 286 0.0 0.0 0.00 0.00 0.00 91 1020.9
20260502034801 5 286 0.0 0.0 0.00 0.61 0.61 90 1020.8
20260502033257 5 286 0.0 0.0 0.00 0.61 0.61 90 1020.8
20260502031807 5 286 0.0 0.0 0.00 0.61 0.61 90 1020.6
20260502030237 5 286 0.0 0.0 0.00 0.61 0.61 91 1020.5
20260502024758 5 286 0.0 0.0 0.00 0.61 0.61 92 1020.5
20260502023227 5 286 0.0 0.0 0.00 0.61 0.61 92 1020.5